Weather History for KONL - December, 2013

Change the Weather History Date:

Wednesday, December 11, 2013

  Actual Average Record
Temperature  
Mean Temperature 8 °F -  
Max Temperature 22 °F 38 °F 64 °F (1990)
Min Temperature -7 °F 15 °F -10 °F (1962)
Degree Days  
Heating Degree Days 58    
Moisture  
Dew Point 2 °F    
Average Humidity 66    
Maximum Humidity 81    
Minimum Humidity 49    
Precipitation  
Precipitation 0.00 in - - ()
Sea Level Pressure  
Sea Level Pressure 30.41 in    
Wind  
Wind Speed 11 mph (WSW)    
Max Wind Speed 18 mph    
Max Gust Speed 25 mph    
Visibility 10 miles    
Events Snow    
Averages and records for this station are not official NWS values.
T = Trace of Precipitation, MM = Missing Value Source: NWS Daily Summary

Daily Weather History Graph

Daily Weather History Graph

Search for Another Location

Airport or City:

Trip Planner

Search our weather history database for the weather conditions in past years. The results will help you decide how hot, cold, wet, or windy it might be!

Date:

Astronomy

Dec. 11, 2013 Rise Set
Actual Time 7:54 AM CST 5:01 PM CST
Civil Twilight 7:22 AM CST 5:33 PM CST
Nautical Twilight 6:47 AM CST 6:09 PM CST
Astronomical Twilight 6:12 AM CST 6:43 PM CST
Moon 1:41 PM CST (12/11) 2:11 AM CST (12/11)
Length of Visible Light 10h 11m
Length of Day
9h 07m
Waxing Gibbous, 72% of the Moon is Illuminated
Dec 11
Waxing Gibbous
Dec 17
Full
Dec 25
Last Quarter
Jan 1
New
Jan 7
First Quarter

Hourly Weather History & Observations

Time (CST) Temp. Windchill Dew Point Humidity Pressure Visibility Wind Dir Wind Speed Gust Speed Precip Events Conditions
12:15 AM 15.1 °F -1.1 °F 9.9 °F 80% 30.35 in 10.0 mi NNW 17.3 mph 21.9 mph N/A   Scattered Clouds
12:35 AM 15.4 °F -1.1 °F 9.5 °F 77% 30.36 in 10.0 mi NNW 18.4 mph 25.3 mph N/A Snow Light Snow
12:55 AM 13.5 °F -3.7 °F 7.0 °F 75% 30.36 in 10.0 mi NNW 18.4 mph - N/A   Mostly Cloudy
1:15 AM 12.7 °F -3.6 °F 5.7 °F 74% 30.37 in 10.0 mi NNW 16.1 mph - N/A   Scattered Clouds
1:35 AM 12.6 °F -1.4 °F 6.4 °F 77% 30.38 in 10.0 mi NNW 11.5 mph - N/A Snow Light Snow
1:55 AM 12.2 °F -3.1 °F 6.8 °F 79% 30.39 in 4.0 mi NNW 13.8 mph - N/A Snow Light Snow
2:15 AM 9.9 °F -8.4 °F 1.8 °F 70% 30.40 in 7.0 mi NNW 18.4 mph 23.0 mph N/A Snow Light Snow
2:35 AM 6.6 °F -10.9 °F -1.3 °F 70% 30.42 in 10.0 mi NNW 15.0 mph 20.7 mph N/A   Scattered Clouds
2:55 AM 5.0 °F -11.6 °F -2.7 °F 70% 30.43 in 10.0 mi NNW 12.7 mph - N/A   Scattered Clouds
3:15 AM 3.9 °F -13.0 °F -5.4 °F 65% 30.44 in 10.0 mi NNW 12.7 mph - N/A   Scattered Clouds
3:35 AM 2.8 °F -15.0 °F -6.3 °F 66% 30.44 in 10.0 mi NNW 13.8 mph - N/A   Clear
3:55 AM 1.8 °F -15.7 °F -7.8 °F 64% 30.45 in 10.0 mi NNW 12.7 mph - N/A   Clear
4:15 AM 0.7 °F -15.4 °F -8.9 °F 64% 30.45 in 10.0 mi NNW 10.4 mph - N/A   Clear
4:35 AM -0.0 °F -15.3 °F -9.4 °F 65% 30.44 in 10.0 mi NNW 9.2 mph - N/A   Clear
4:55 AM -0.8 °F -10.8 °F -9.8 °F 66% 30.45 in 10.0 mi NNW 4.6 mph - N/A   Clear
5:15 AM -2.4 °F -12.7 °F -10.5 °F 68% 30.46 in 10.0 mi NNW 4.6 mph - N/A   Clear
5:35 AM -3.8 °F -12.2 °F -11.2 °F 71% 30.47 in 10.0 mi NNW 3.5 mph - N/A   Clear
5:55 AM -4.5 °F -16.9 °F -12.5 °F 69% 30.48 in 10.0 mi West 5.8 mph - N/A   Clear
6:15 AM -4.5 °F -15.2 °F -11.6 °F 72% 30.48 in 10.0 mi West 4.6 mph - N/A   Scattered Clouds
6:35 AM -4.0 °F -14.6 °F -11.2 °F 71% 30.49 in 10.0 mi WSW 4.6 mph - N/A   Clear
6:55 AM -6.9 °F -17.9 °F -13.4 °F 73% 30.49 in 10.0 mi West 4.6 mph - N/A   Clear
7:15 AM -6.0 °F - -11.6 °F 77% 30.50 in 10.0 mi Calm Calm - N/A   Clear
7:35 AM -7.6 °F -20.6 °F -13.2 °F 77% 30.50 in 10.0 mi WSW 5.8 mph - N/A   Clear
7:55 AM -7.2 °F -24.2 °F -12.8 °F 77% 30.50 in 10.0 mi WNW 9.2 mph - N/A   Clear
8:15 AM -6.9 °F -21.2 °F -13.4 °F 73% 30.50 in 10.0 mi WSW 6.9 mph - N/A   Clear
8:35 AM -5.4 °F -16.2 °F -11.7 °F 74% 30.50 in 10.0 mi West 4.6 mph - N/A   Clear
8:55 AM -3.1 °F -15.2 °F -9.8 °F 73% 30.52 in 10.0 mi West 5.8 mph - N/A   Clear
9:15 AM -0.9 °F -11.0 °F -8.7 °F 70% 30.52 in 10.0 mi West 4.6 mph - N/A   Clear
9:35 AM 0.1 °F -9.7 °F -8.7 °F 66% 30.53 in 10.0 mi West 4.6 mph - N/A   Clear
9:55 AM 2.3 °F -10.2 °F -7.6 °F 63% 30.53 in 10.0 mi West 6.9 mph - N/A   Clear
10:15 AM 3.6 °F -5.7 °F -7.4 °F 60% 30.54 in 10.0 mi SW 4.6 mph - N/A   Clear
10:35 AM 5.5 °F -3.4 °F -6.7 °F 57% 30.54 in 10.0 mi West 4.6 mph - N/A   Clear
10:55 AM 7.3 °F 0.5 °F -6.0 °F 55% 30.54 in 10.0 mi WNW 3.5 mph - N/A   Clear
11:15 AM 8.4 °F -0.1 °F -6.0 °F 52% 30.53 in 10.0 mi West 4.6 mph - N/A   Clear
11:35 AM 9.5 °F -2.6 °F -5.1 °F 52% 30.52 in 10.0 mi SW 8.1 mph - N/A   Clear
11:55 AM 10.4 °F -2.4 °F -4.0 °F 52% 30.51 in 10.0 mi SW 9.2 mph - N/A   Clear
12:15 PM 12.0 °F 0.5 °F -2.6 °F 52% 30.50 in 10.0 mi SSW 8.1 mph - N/A   Clear
12:35 PM 14.0 °F 2.0 °F -0.6 °F 52% 30.48 in 10.0 mi SSW 9.2 mph - N/A   Clear
12:55 PM 15.1 °F 5.2 °F -0.2 °F 51% 30.47 in 10.0 mi SSW 6.9 mph - N/A   Clear
1:15 PM 15.6 °F 4.0 °F -0.6 °F 49% 30.45 in 10.0 mi SSW 9.2 mph - N/A   Clear
1:35 PM 16.3 °F 3.4 °F 0.3 °F 49% 30.44 in 10.0 mi SSW 11.5 mph - N/A   Clear
1:55 PM 17.4 °F 4.7 °F 1.8 °F 50% 30.43 in 10.0 mi SSW 11.5 mph - N/A   Clear
2:15 PM 18.5 °F 4.9 °F 2.7 °F 50% 30.42 in 10.0 mi SSW 13.8 mph 17.3 mph N/A   Clear
2:35 PM 18.7 °F 7.0 °F 3.2 °F 51% 30.40 in 10.0 mi South 10.4 mph - N/A   Clear
2:55 PM 19.9 °F 7.3 °F 4.5 °F 51% 30.39 in 10.0 mi South 12.7 mph - N/A   Clear
3:15 PM 21.0 °F 9.3 °F 6.1 °F 53% 30.38 in 10.0 mi South 11.5 mph - N/A   Clear
3:35 PM 21.9 °F 11.0 °F 7.7 °F 54% 30.37 in 10.0 mi South 10.4 mph - N/A   Clear
3:55 PM 22.6 °F 12.6 °F 8.8 °F 55% 30.36 in 10.0 mi South 9.2 mph - N/A   Clear
4:15 PM 22.3 °F 11.5 °F 9.3 °F 58% 30.35 in 10.0 mi South 10.4 mph - N/A   Clear
4:35 PM 22.1 °F 12.0 °F 9.7 °F 59% 30.34 in 10.0 mi South 9.2 mph - N/A   Clear
4:55 PM 21.2 °F 11.7 °F 10.0 °F 62% 30.34 in 10.0 mi South 8.1 mph - N/A   Clear
5:15 PM 20.3 °F 9.8 °F 9.5 °F 63% 30.33 in 10.0 mi South 9.2 mph - N/A   Clear
5:35 PM 20.1 °F 9.5 °F 9.3 °F 63% 30.33 in 10.0 mi South 9.2 mph - N/A   Clear
5:55 PM 20.1 °F 8.8 °F 9.5 °F 63% 30.32 in 10.0 mi South 10.4 mph - N/A   Clear
6:15 PM 19.6 °F 9.7 °F 9.5 °F 65% 30.32 in 10.0 mi South 8.1 mph - N/A   Clear
6:35 PM 18.7 °F 8.6 °F 9.9 °F 69% 30.32 in 10.0 mi South 8.1 mph - N/A   Clear
6:55 PM 19.9 °F 10.1 °F 11.3 °F 69% 30.32 in 10.0 mi South 8.1 mph - N/A   Clear
7:15 PM 21.6 °F 10.6 °F 12.7 °F 69% 30.32 in 10.0 mi SSW 10.4 mph - N/A   Clear
7:35 PM 21.9 °F 10.4 °F 12.9 °F 68% 30.32 in 10.0 mi SSW 11.5 mph - N/A   Clear
7:55 PM 21.0 °F 9.9 °F 12.6 °F 70% 30.32 in 10.0 mi SSW 10.4 mph - N/A   Clear
8:15 PM 20.8 °F 8.4 °F 12.7 °F 71% 30.31 in 10.0 mi SSW 12.7 mph - N/A   Clear
8:35 PM 21.2 °F 8.9 °F 13.1 °F 71% 30.31 in 10.0 mi SSW 12.7 mph - N/A   Clear
8:55 PM 20.7 °F 8.8 °F 13.1 °F 73% 30.30 in 10.0 mi SSW 11.5 mph - N/A   Clear
9:15 PM 20.3 °F 9.0 °F 13.1 °F 74% 30.31 in 10.0 mi SSW 10.4 mph - N/A   Clear
9:35 PM 20.8 °F 9.7 °F 13.8 °F 74% 30.30 in 10.0 mi SSW 10.4 mph - N/A   Clear
9:55 PM 20.7 °F 9.5 °F 13.6 °F 74% 30.30 in 10.0 mi SSW 10.4 mph - N/A   Clear
10:15 PM 19.8 °F 9.1 °F 13.3 °F 76% 30.29 in 10.0 mi SW 9.2 mph - N/A   Clear
10:35 PM 19.4 °F 8.6 °F 13.3 °F 77% 30.29 in 10.0 mi SW 9.2 mph - N/A   Clear
10:55 PM 19.6 °F 7.4 °F 13.5 °F 77% 30.28 in 10.0 mi SW 11.5 mph - N/A   Clear
11:15 PM 19.8 °F 7.1 °F 13.6 °F 77% 30.28 in 10.0 mi SW 12.7 mph - N/A   Clear
11:35 PM 18.7 °F 8.6 °F 12.9 °F 78% 30.28 in 10.0 mi SW 8.1 mph - N/A   Clear
11:55 PM 18.0 °F 8.7 °F 12.9 °F 81% 30.28 in 10.0 mi SW 6.9 mph - N/A   Clear